{"data":{"norad_id":68586,"epoch":"2026-09-19T23:54:19.717056Z","epoch_age_seconds":109953,"freshness":"FRESH","line1":"1 68586U 26072P   26262.99606154  .00001772  00000+0  26141-3 0  9991","line2":"2 68586  51.9017 111.5068 0000743 111.4422 248.6620 14.79931728 25500","mean_motion":14.79931728,"eccentricity":7.43e-5,"inclination_deg":51.9017,"raan_deg":111.5068,"arg_perigee_deg":111.4422,"mean_anomaly_deg":248.662,"bstar":0.00026141,"rev_number":2550,"period_min":97.301785802379,"perigee_km":629.01897419198,"apogee_km":630.06031494136,"semimajor_km":7007.6766445667,"source":"CELESTRAK","updated_at":"2026-09-20T09:00:24.321801Z"}}